Location: Caltech
(34.1382°N, 118.1253°W)
Time: 09:47:18
(UTC-08:00)

Cosmos 2084 - Visible Passes

Search period start: 10 February 2016 00:00
Search period end: 20 February 2016 00:00
Orbit: 517 x 672 km, 62.8° (Epoch: 09 February)

Date Brightness Start Highest point End Pass type
(mag) Time Alt. Az. Time Alt. Az. Time Alt. Az.
10 Feb 4.8 05:18:01 10° NNW 05:22:03 38° NE 05:26:16 10° ESE visible
11 Feb 3.7 05:27:27 11° NNW 05:31:32 73° ENE 05:36:04 10° SE visible
12 Feb 6.2 04:00:39 14° NE 04:01:07 15° NE 04:03:36 10° E visible
12 Feb 3.6 05:37:20 14° NW 05:40:57 57° WSW 05:45:24 10° SSE visible
12 Feb 5.7 19:38:26 10° SSW 19:39:00 14° SSW 19:39:00 14° SSW visible
13 Feb 5.5 04:10:40 25° NE 04:10:46 25° NE 04:14:27 10° ESE visible
13 Feb 4.4 05:47:20 15° WNW 05:50:17 29° WSW 05:54:14 10° S visible
13 Feb 5.2 19:47:50 10° SW 19:49:29 24° SW 19:49:29 24° SW visible
14 Feb 4.6 04:20:49 42° ENE 04:20:49 42° ENE 04:24:38 10° SE visible
14 Feb 5.2 05:57:30 12° W 05:59:34 16° WSW 06:02:16 10° SSW visible
14 Feb 4.8 18:19:18 10° SSE 18:21:55 17° ESE 18:23:14 15° E visible
14 Feb 5.4 19:57:43 10° WSW 19:59:55 24° W 19:59:55 24° W visible
15 Feb 4.3 04:31:06 45° SE 04:31:06 45° SE 04:34:19 10° SSE visible
15 Feb 3.9 18:27:36 10° S 18:31:10 35° ESE 18:33:35 17° ENE visible
15 Feb 6.0 20:08:13 10° W 20:10:16 16° WNW 20:10:16 16° WNW visible
16 Feb 5.1 04:41:30 24° S 04:41:30 24° S 04:43:32 10° SSE visible
16 Feb 3.1 18:36:37 10° SSW 18:40:30 76° ESE 18:43:50 14° NE visible
17 Feb 6.0 04:51:59 11° SSW 04:51:59 11° SSW 04:52:12 10° S visible
17 Feb 4.0 18:46:08 10° SW 18:49:55 50° WNW 18:53:45 10° NNE visible
18 Feb 5.3 18:56:08 10° WSW 18:59:26 26° NW 19:02:46 10° N visible
19 Feb 6.0 19:06:50 10° W 19:09:04 15° NW 19:11:19 10° NNW visible
